[[{"header":{"parameterUnit":"m.s-1","parameterCategory":1,"la1":30.2992,"la2":30.254,"lo1":-89.0895,"lo2":-89.0443,"dy":0.0025,"dx":0.0025,"nx":19,"ny":19,"refTime":"2026-05-16T03:00:00:Z","depth":0,"parameterNumber":2,"parameterNumberName":"U-component_of_WINDS"},"data":[0,0,0,-2.0965,-2.0966,-2.0983,-2.0984,-2.1017,-2.1017,0,0,0,0,0,0,0,0,0,0,0,-2.0966,-2.0966,-2.0965,-2.0966,-2.0983,-2.0984,-2.1017,-2.1017,0,0,0,0,0,0,0,0,0,0,0,-2.0966,-2.0966,-2.0967,-2.0966,-2.0983,-2.0984,-2.1017,-2.1,0,0,0,0,0,0,0,0,0,0,-2.0981,-2.0987,-2.0966,-2.0967,-2.0966,-2.0983,-2.0984,-2.0999,-2.1001,-2.1013,0,-2.1025,0,-2.1022,-2.102,-2.102,0,0,0,-2.0962,-2.0985,-2.0985,-2.0967,-2.0966,-2.0983,-2.0974,-2.1,-2.1002,-2.1016,-2.1026,-2.1027,-2.1023,-2.1021,-2.1021,-2.1105,-2.1105,0,0,-2.0961,-2.0972,-2.0983,-2.0986,-2.0983,-2.0974,-2.0975,-2.1001,-2.1013,-2.1026,-2.1027,-2.1023,-2.1021,-2.1021,-2.1104,-2.1105,0,0,0,-2.0961,-2.0972,-2.097,-2.0985,-2.0988,-2.0974,-2.0976,-2.1011,-2.101,-2.1028,-2.1023,-2.1021,-2.1022,-2.1104,-2.1105,-2.1144,0,0,0,-2.096,-2.0972,-2.097,-2.0977,-2.0987,-2.1,-2.0986,-2.1008,-2.1011,-2.1023,-2.1021,-2.1022,-2.1103,-2.1104,-2.1141,-2.116,0,0,0,-2.0963,-2.0972,-2.0976,-2.0978,-2.0986,-2.0999,-2.0999,-2.1008,-2.1008,-2.102,-2.1022,-2.1102,-2.1104,-2.1139,-2.1157,-2.1186,0,0,0,-2.0969,-2.1012,-2.0977,-2.1023,-2.0986,-2.1023,-2.0998,-2.1026,-2.1041,-2.1021,-2.1103,-2.1104,-2.1138,-2.1154,-2.1183,-2.1212,-2.1224,0,0,-2.1029,-2.1019,-2.1045,-2.1015,-2.1061,-2.1019,-2.1072,-2.1075,-2.1066,-2.1093,-2.1095,-2.1142,-2.1157,-2.1185,-2.1294,-2.1304,0,0,0,-2.1068,-2.1087,-2.1097,-2.1111,-2.1115,-2.1119,-2.1113,-2.1115,-2.1136,-2.1082,-2.116,-2.1169,-2.1185,-2.1198,-2.1207,-2.122,-2.1111,-2.1111,-2.1111,-2.1169,-2.1155,-2.1197,-2.1186,-2.12,-2.1194,-2.1205,-2.1205,-2.1187,-2.1206,-2.1214,-2.1281,-2.1297,-2.1304,-2.1318,-2.1228,-2.1228,-2.1229,-2.1229,-2.1255,-2.1279,-2.1254,-2.1286,-2.1272,-2.1299,-2.1295,-2.1281,-2.1305,-2.1275,-2.1288,-2.1256,-2.1315,-2.1327,-2.1231,-2.1231,-2.1231,-2.123,-2.123,-2.1319,-2.1328,-2.1329,-2.1349,-2.1366,-2.1353,-2.1377,-2.1363,-2.135,-2.1364,-2.137,-2.1369,-2.1367,-2.1368,-2.1368,-2.1368,-2.1368,-2.1369,-2.1369,-2.1385,-2.1384,-2.1405,-2.1413,-2.142,-2.1429,-2.1424,-2.1431,-2.1436,-2.1424,-2.1424,-2.1404,-2.1324,-2.1303,-2.1372,-2.1372,-2.1371,-2.1371,-2.1371,-2.1476,-2.1453,-2.1486,-2.1494,-2.1501,-2.152,-2.1502,-2.1518,-2.1523,-2.1535,-2.1513,-2.1455,-2.1444,-2.1437,-2.142,-2.1515,-2.1515,-2.1515,-2.1515,-2.153,-2.1523,-2.1553,-2.1567,-2.1578,-2.1565,-2.1604,-2.16,-2.1594,-2.1596,-2.158,-2.1557,-2.155,-2.1543,-2.1534,-2.1518,-2.1635,-2.1635,-2.1635,-2.1586,-2.1579,-2.1614,-2.1606,-2.1611,-2.1616,-2.1652,-2.1669,-2.1656,-2.164,-2.1597,-2.1592,-2.1554,-2.1542,-2.1524,-2.151,-2.148,0,0]},{"header":{"parameterUnit":"m.s-1","parameterCategory":1,"la1":30.2992,"la2":30.254,"lo1":-89.0895,"lo2":-89.0443,"dy":0.0025,"dx":0.0025,"nx":19,"ny":19,"refTime":"2026-05-16T03:00:00:Z","depth":0,"parameterNumber":3,"parameterNumberName":"V-component_of_WINDS"},"data":[0,0,0,3.6661,3.6662,3.6718,3.6718,3.6792,3.6793,0,0,0,0,0,0,0,0,0,0,0,3.6648,3.6648,3.6661,3.6662,3.6718,3.6718,3.6792,3.6793,0,0,0,0,0,0,0,0,0,0,0,3.6647,3.6648,3.6649,3.6663,3.6718,3.6718,3.6792,3.6749,0,0,0,0,0,0,0,0,0,0,3.6694,3.6685,3.6648,3.6649,3.6663,3.6717,3.6718,3.6746,3.6751,3.6769,0,3.6787,0,3.6791,3.6798,3.6799,0,0,0,3.666,3.6681,3.6693,3.6649,3.6663,3.6717,3.6692,3.6749,3.6755,3.6776,3.6788,3.679,3.6792,3.6799,3.6799,3.6913,3.6914,0,0,3.6656,3.6659,3.669,3.6697,3.669,3.669,3.6694,3.6752,3.6765,3.6788,3.6792,3.6794,3.6799,3.68,3.6913,3.6914,0,0,0,3.665,3.6657,3.6668,3.6694,3.6704,3.6692,3.6696,3.6763,3.6766,3.6793,3.6794,3.68,3.6801,3.6912,3.6913,3.6949,0,0,0,3.6648,3.6653,3.6666,3.6669,3.6703,3.6734,3.6705,3.6762,3.6768,3.6794,3.68,3.6801,3.6911,3.6913,3.6947,3.6966,0,0,0,3.6643,3.6652,3.6662,3.6669,3.6693,3.6733,3.674,3.6763,3.677,3.6799,3.6802,3.6911,3.6912,3.6944,3.6962,3.6997,0,0,0,3.6638,3.6692,3.6662,3.6722,3.6692,3.6755,3.6739,3.6786,3.6815,3.68,3.6911,3.6913,3.6944,3.696,3.6995,3.7028,3.7042,0,0,3.6707,3.67,3.6735,3.6711,3.678,3.6747,3.6821,3.6844,3.6844,3.689,3.6893,3.6947,3.6962,3.6997,3.7118,3.7129,0,0,0,3.6758,3.6784,3.6801,3.683,3.685,3.6869,3.6881,3.689,3.6929,3.6868,3.6969,3.6978,3.6998,3.7014,3.7023,3.7041,3.692,3.692,3.692,3.6859,3.6857,3.6915,3.692,3.6948,3.6961,3.6983,3.6997,3.6985,3.7009,3.7023,3.7097,3.7115,3.7122,3.7141,3.704,3.704,3.704,3.704,3.696,3.6996,3.6981,3.7033,3.703,3.7073,3.7087,3.7077,3.7117,3.7086,3.7104,3.7071,3.7135,3.7151,3.7043,3.7042,3.7042,3.7042,3.7041,3.7026,3.7044,3.7054,3.7096,3.7128,3.713,3.7169,3.7165,3.7161,3.7178,3.7193,3.7192,3.7192,3.7186,3.7186,3.7186,3.7186,3.7186,3.7187,3.7092,3.7102,3.7136,3.7163,3.7181,3.7204,3.7218,3.7235,3.7253,3.7247,3.7247,3.7234,3.7141,3.7119,3.7191,3.719,3.7189,3.7189,3.7189,3.7196,3.7172,3.7224,3.7243,3.7274,3.7306,3.73,3.7336,3.735,3.7369,3.7352,3.7285,3.7277,3.7269,3.7251,3.7352,3.7352,3.7352,3.7352,3.7253,3.7249,3.7302,3.7332,3.736,3.736,3.7419,3.743,3.7437,3.7446,3.743,3.7405,3.7397,3.7394,3.7383,3.7366,3.7495,3.7495,3.7495,3.7317,3.7316,3.7367,3.7375,3.7399,3.742,3.7476,3.751,3.7513,3.7501,3.7452,3.7446,3.7405,3.7392,3.7379,3.7363,3.7331,0,0]}]]